Wind_Speed
70 73 76 79 82 85 87 87 86 82 76 72 68 66 64 64 64 65 65 65 65 64 62 60 58 58 57 55 54 53 57 71 85 90 91 89 87 86 85 82 79 76 73
74 76 79 81 84 85 86 85 81 77 75 73 72 70 68 66 65 64 63 63 63 63 62 62 60 59 59 58 56 53 50 54 69 84 92 93 89 88 86 85 82 80 77
77 78 81 83 84 84 83 81 79 78 75 70 65 60 55 52 51 50 50 50 50 51 53 56 58 59 58 59 59 56 52 49 53 67 85 94 94 90 87 86 84 83 82
78 80 83 85 85 84 82 81 79 74 66 60 56 53 51 50 49 48 48 47 46 45 45 46 48 52 54 56 60 60 55 52 49 52 67 86 95 94 90 87 85 83 82
80 82 84 86 85 82 81 79 72 64 59 56 54 53 53 55 55 53 51 48 47 45 44 44 44 44 47 51 56 60 58 54 51 48 52 70 89 96 93 88 87 85 82
81 83 85 84 82 82 80 72 65 60 57 56 55 56 57 58 57 55 52 49 47 46 46 44 44 44 43 46 51 56 58 55 52 49 47 55 75 93 97 93 88 86 81
82 84 84 82 81 81 74 66 62 60 58 57 57 58 59 60 58 55 51 48 46 45 45 44 43 43 43 43 46 52 55 54 51 49 48 49 60 82 96 97 92 88 83
82 84 83 81 81 76 68 64 62 61 60 59 58 60 61 59 55 51 48 46 45 44 44 43 42 41 41 41 42 46 51 53 50 48 47 47 51 66 88 98 97 92 88
83 83 81 81 78 70 65 64 63 61 60 59 59 61 61 56 51 48 48 47 46 46 45 43 41 39 38 39 40 42 46 50 48 45 44 43 45 52 72 91 98 97 92
82 80 80 80 73 66 64 64 63 62 60 59 61 61 57 52 50 50 50 48 46 45 43 41 40 37 35 37 38 40 42 45 45 43 40 39 41 44 55 75 91 97 96
80 79 80 76 68 64 63 63 63 62 61 61 60 58 55 52 51 51 50 49 47 45 42 40 39 37 33 34 36 38 38 40 43 41 39 37 37 40 45 57 75 89 95
79 80 78 71 65 63 63 63 63 63 62 61 58 56 54 53 52 52 51 51 49 47 45 43 40 38 34 32 33 35 35 36 40 41 39 37 36 37 41 47 60 75 88
79 78 73 67 63 63 63 63 63 63 62 59 57 56 54 53 54 55 55 54 53 52 49 48 45 40 35 31 30 31 32 33 37 39 39 37 36 36 37 42 50 63 76
78 75 70 64 62 62 63 63 63 63 60 58 57 56 56 56 57 57 58 58 58 56 55 51 45 39 34 30 29 29 29 30 34 38 39 37 36 35 35 38 44 54 65
76 72 66 62 61 61 62 63 63 61 58 57 56 57 58 59 60 60 61 62 63 61 57 49 40 33 29 27 27 27 27 27 31 35 38 38 35 35 35 36 38 46 55
75 70 63 60 60 61 62 63 63 60 57 56 57 59 61 61 61 62 63 66 66 61 51 39 28 23 23 23 24 26 26 25 29 33 36 37 36 35 35 35 36 40 46
73 66 60 58 60 62 63 63 62 58 55 55 58 61 63 63 63 64 67 69 67 57 43 28 16 13 18 21 23 25 24 24 27 32 35 37 37 36 37 37 36 38 41
70 64 58 57 60 62 62 62 61 57 55 56 60 63 65 65 65 67 70 70 64 51 36 21 8 9 15 19 21 22 21 21 25 31 35 36 38 38 38 38 38 38 39
69 63 57 56 60 62 62 61 60 57 55 56 60 64 66 66 67 69 72 71 60 46 31 17 5 8 13 17 19 18 18 19 24 31 35 36 37 39 39 39 39 39 40
68 62 56 55 59 62 61 61 60 57 55 56 61 65 67 67 68 71 74 72 60 44 30 17 5 6 11 14 16 15 16 19 24 31 36 38 38 38 38 39 39 39 40
68 61 56 55 59 61 61 60 60 58 56 57 61 64 67 68 69 71 75 74 62 46 32 19 8 4 7 10 12 11 13 17 24 32 37 39 39 38 38 38 38 38 38
67 61 56 55 57 60 60 59 60 58 56 57 60 63 66 68 69 71 73 75 67 50 36 23 12 5 4 6 7 7 8 13 22 32 38 41 42 41 40 39 38 38 37
66 61 55 54 56 58 59 58 59 58 56 57 59 61 64 68 69 69 71 74 72 59 43 31 18 9 5 4 5 4 4 8 17 28 38 41 43 44 43 41 40 39 38
65 60 55 53 54 57 58 57 57 58 57 57 57 59 62 66 68 69 70 72 74 69 55 40 27 16 10 7 6 5 3 4 11 23 34 40 43 45 45 43 42 41 40
64 60 55 52 53 55 56 56 56 57 57 56 56 57 60 63 67 69 70 71 73 74 67 53 39 26 16 11 9 7 4 2 6 17 28 37 41 44 46 45 44 42 41
64 60 55 51 51 53 54 54 54 56 56 56 56 56 57 60 63 67 69 69 69 70 70 65 55 41 28 18 13 9 7 4 3 10 21 32 39 43 46 47 47 45 43
Wind_Direction
323 323 322 322 322 322 322 321 318 316 315 314 311 307 303 299 295 292 289 287 284 282 279 276 273 270 266 263 262 260 252 242 236 234 233 232 231 232 233 233 233 234 233
326 325 324 324 325 324 323 321 319 318 317 315 312 309 306 303 300 298 295 292 288 284 280 275 271 268 263 258 257 258 256 251 243 237 233 231 229 229 230 231 231 231 232
329 328 327 327 326 325 324 323 322 321 319 318 317 316 316 314 311 308 305 301 297 292 285 279 273 268 263 255 251 253 255 254 251 244 236 231 228 227 227 229 230 230 230
331 329 328 328 327 326 326 325 324 324 323 324 324 324 323 321 318 315 311 308 305 300 293 287 279 270 264 256 249 248 252 253 252 251 244 235 229 226 224 226 227 228 229
332 330 330 329 328 327 327 327 327 326 326 326 326 326 325 323 321 318 314 310 306 303 298 292 286 277 267 258 251 247 248 251 250 251 251 243 234 227 223 222 224 225 226
333 332 331 329 329 328 329 330 329 327 327 328 327 326 325 323 321 318 315 311 307 303 299 294 288 282 273 262 253 247 246 247 249 249 253 250 240 231 225 220 221 223 222
334 333 331 330 329 330 331 332 331 330 330 329 328 327 326 324 322 320 318 315 311 307 302 297 291 284 276 267 257 249 245 244 247 249 252 256 247 236 228 222 218 220 219
335 334 333 331 331 332 334 334 333 332 332 331 330 330 329 327 325 323 322 319 317 314 310 305 297 287 277 269 261 253 246 243 244 248 251 255 253 239 230 224 218 217 218
336 335 333 332 333 335 336 336 335 335 334 334 333 332 331 330 328 326 324 321 319 317 315 311 305 294 280 269 261 255 247 242 242 245 249 252 252 242 231 225 220 216 215
337 336 335 334 335 337 337 337 337 337 337 336 334 335 335 333 331 329 327 324 321 320 318 316 311 303 287 272 262 253 248 243 241 242 245 248 248 242 232 226 222 218 215
338 337 336 336 337 339 339 339 340 340 340 338 338 339 338 336 333 331 329 327 324 321 319 317 315 310 297 280 266 253 246 242 240 239 240 242 242 240 232 225 223 220 216
339 338 338 338 340 341 341 341 342 342 342 342 342 341 340 338 336 334 332 329 325 321 318 315 313 311 304 289 272 254 242 238 237 236 236 236 237 237 232 224 221 221 218
341 340 340 340 342 342 343 343 344 345 345 345 345 343 341 339 337 335 332 329 325 321 316 312 309 305 302 292 277 257 240 233 232 232 232 232 232 233 230 224 219 219 219
342 342 342 342 343 344 345 345 346 347 347 347 347 345 342 340 337 334 331 328 325 320 315 309 303 298 294 287 275 260 242 230 226 226 227 228 228 227 226 223 219 216 218
344 344 343 344 345 347 347 348 348 348 349 350 349 346 343 340 337 335 332 329 326 321 316 309 299 290 284 277 268 259 244 229 221 219 221 223 224 222 221 222 219 215 215
346 346 345 345 347 349 349 350 350 350 351 351 351 348 345 343 341 338 336 333 331 327 323 315 300 282 269 261 256 253 243 227 217 213 214 217 218 217 217 217 216 214 212
348 348 347 347 349 351 352 352 352 353 353 353 352 350 349 348 346 343 342 340 337 335 333 326 307 266 251 247 245 245 239 225 214 208 208 211 213 213 213 213 213 212 211
349 350 349 350 351 353 354 354 354 354 354 354 355 354 353 352 351 350 349 346 343 342 342 338 314 239 237 239 242 242 236 222 210 204 203 206 209 210 210 210 209 209 209
351 351 350 351 353 355 356 356 356 356 355 356 357 357 357 357 356 355 355 353 351 349 349 347 322 227 231 238 243 240 230 217 206 201 199 202 206 208 208 208 208 207 207
352 352 351 351 354 356 357 357 358 358 357 358 359 360 1 1 1 0 1 1 359 357 357 355 334 236 234 241 247 242 227 213 205 201 198 198 201 205 207 208 208 208 208
353 353 352 352 354 357 358 358 359 360 359 360 1 2 4 5 5 5 7 7 6 6 4 3 351 274 245 249 256 250 231 216 207 202 199 198 199 201 203 206 207 208 209
354 354 353 353 355 358 359 360 1 1 1 2 3 4 6 8 9 9 11 13 13 13 13 13 9 343 282 268 271 267 244 223 212 206 201 199 198 198 199 201 204 206 207
355 356 355 355 356 359 0 1 3 3 4 5 5 6 9 11 12 13 15 18 19 19 20 21 21 19 360 325 310 305 264 232 218 211 206 202 200 198 198 198 200 201 202
356 357 356 356 358 360 1 3 4 5 6 6 6 8 11 13 15 17 19 21 23 24 24 24 25 28 27 16 2 351 334 247 225 216 210 207 204 201 199 198 198 198 199
357 357 357 358 359 1 2 4 5 7 8 8 7 9 12 15 17 20 21 23 25 27 28 28 28 30 30 27 21 13 357 307 232 218 214 211 209 206 202 200 198 198 199
357 358 358 358 -0 2 3 5 7 8 9 10 9 10 13 16 19 22 24 25 27 29 30 31 31 32 32 29 23 15 5 340 257 221 215 213 212 210 207 204 201 200 200
Height
5778 5765 5752 5738 5723 5708 5692 5676 5660 5644 5631 5619 5609 5600 5591 5581 5573 5565 5558 5553 5548 5544 5542 5541 5540 5540 5541 5540 5540 5541 5544 5549 5556 5568 5581 5594 5606 5618 5627 5639 5651 5662 5672
5765 5751 5737 5722 5707 5691 5675 5658 5642 5628 5615 5602 5591 5580 5571 5561 5553 5545 5538 5531 5526 5522 5519 5518 5517 5518 5520 5521 5522 5524 5526 5529 5533 5542 5554 5570 5585 5591 5607 5618 5629 5641 5652
5752 5738 5723 5707 5691 5675 5658 5641 5626 5612 5599 5586 5575 5564 5555 5546 5537 5530 5522 5514 5507 5502 5498 5496 5495 5495 5497 5500 5503 5506 5509 5513 5515 5519 5528 5543 5555 5570 5586 5597 5610 5620 5630
5742 5726 5710 5694 5677 5660 5642 5627 5612 5598 5584 5572 5561 5551 5542 5533 5525 5517 5509 5502 5494 5488 5483 5478 5475 5474 5475 5478 5482 5487 5491 5496 5499 5502 5506 5516 5529 5545 5562 5576 5588 5601 5614
5730 5714 5697 5680 5662 5645 5629 5614 5599 5586 5573 5562 5551 5541 5531 5521 5512 5504 5496 5489 5482 5475 5470 5465 5460 5457 5457 5458 5462 5467 5473 5478 5482 5486 5489 5495 5505 5519 5537 5554 5566 5579 5595
5719 5702 5685 5667 5649 5633 5618 5603 5590 5577 5564 5553 5542 5531 5521 5510 5500 5491 5483 5475 5468 5462 5456 5451 5447 5443 5441 5441 5443 5447 5453 5459 5464 5468 5472 5476 5483 5495 5511 5530 5545 5559 5576
5709 5692 5675 5657 5639 5624 5608 5593 5581 5568 5556 5544 5533 5521 5510 5499 5488 5478 5469 5462 5455 5448 5442 5437 5433 5429 5427 5425 5426 5429 5434 5440 5446 5451 5455 5458 5462 5471 5486 5506 5525 5539 5556
5699 5681 5663 5645 5630 5613 5598 5585 5572 5560 5548 5536 5524 5512 5500 5488 5477 5467 5458 5450 5442 5435 5429 5423 5418 5414 5412 5411 5411 5413 5417 5423 5429 5434 5438 5442 5444 5449 5461 5480 5501 5518 5534
5688 5670 5652 5636 5620 5604 5590 5577 5564 5551 5539 5527 5515 5503 5490 5478 5467 5458 5449 5440 5432 5424 5416 5409 5403 5399 5396 5396 5397 5398 5401 5407 5413 5418 5423 5426 5429 5431 5440 5455 5475 5496 5513
5679 5660 5643 5627 5610 5596 5583 5570 5556 5543 5530 5518 5505 5493 5481 5469 5459 5450 5440 5431 5421 5413 5405 5397 5391 5386 5382 5381 5381 5383 5387 5392 5398 5404 5409 5412 5415 5418 5423 5434 5452 5472 5493
5670 5652 5636 5619 5604 5590 5576 5563 5549 5536 5523 5511 5498 5485 5473 5462 5451 5441 5430 5421 5411 5402 5394 5387 5380 5374 5370 5367 5366 5369 5374 5379 5384 5390 5395 5400 5404 5408 5412 5420 5433 5451 5471
5662 5645 5628 5612 5598 5584 5570 5556 5543 5529 5516 5503 5490 5478 5466 5454 5443 5432 5421 5411 5401 5391 5382 5375 5368 5363 5358 5354 5353 5355 5361 5366 5371 5377 5383 5389 5394 5399 5403 5409 5419 5434 5452
5655 5638 5621 5606 5592 5579 5565 5550 5536 5523 5510 5496 5484 5471 5459 5447 5436 5424 5412 5400 5389 5379 5369 5361 5355 5350 5346 5342 5341 5342 5348 5354 5359 5366 5373 5379 5385 5390 5395 5401 5409 5421 5437
5649 5632 5615 5601 5588 5574 5560 5546 5532 5518 5504 5491 5479 5466 5453 5440 5427 5414 5401 5388 5375 5364 5353 5344 5338 5335 5333 5330 5329 5331 5336 5342 5348 5355 5362 5369 5375 5382 5387 5393 5400 5410 5425
5643 5626 5611 5598 5585 5571 5556 5541 5528 5513 5500 5487 5474 5461 5446 5432 5418 5403 5389 5374 5359 5345 5332 5323 5318 5318 5318 5318 5318 5320 5324 5331 5337 5344 5353 5360 5367 5374 5380 5387 5394 5403 5416
5639 5622 5607 5594 5581 5567 5553 5538 5524 5509 5496 5483 5470 5456 5441 5426 5410 5394 5378 5361 5342 5326 5311 5303 5301 5302 5304 5306 5308 5309 5315 5322 5328 5335 5344 5352 5360 5367 5374 5381 5388 5397 5407
5634 5618 5604 5591 5578 5564 5549 5534 5520 5506 5493 5480 5466 5451 5436 5420 5403 5386 5367 5347 5327 5310 5298 5291 5289 5291 5293 5296 5298 5301 5307 5314 5321 5328 5336 5344 5352 5360 5368 5375 5383 5391 5401
5630 5614 5601 5589 5575 5561 5545 5531 5517 5503 5490 5478 5464 5448 5432 5415 5398 5379 5359 5337 5316 5300 5290 5285 5283 5285 5287 5290 5293 5296 5301 5307 5314 5321 5328 5336 5344 5353 5361 5370 5378 5386 5395
5626 5611 5598 5586 5572 5558 5543 5529 5515 5502 5489 5476 5462 5447 5430 5413 5394 5375 5354 5332 5310 5295 5286 5282 5280 5282 5283 5286 5288 5291 5295 5301 5307 5313 5320 5328 5336 5345 5354 5364 5373 5381 5390
5623 5609 5596 5584 5571 5556 5542 5528 5514 5501 5487 5474 5459 5444 5428 5410 5392 5372 5351 5328 5307 5293 5285 5281 5279 5280 5281 5283 5285 5287 5291 5296 5301 5307 5313 5321 5329 5338 5347 5357 5367 5376 5385
5622 5606 5593 5582 5570 5556 5541 5527 5514 5500 5486 5472 5458 5443 5427 5410 5392 5373 5352 5330 5309 5295 5286 5282 5280 5280 5280 5282 5283 5285 5288 5291 5296 5301 5307 5315 5323 5332 5341 5351 5360 5369 5378
5619 5604 5592 5581 5569 5555 5541 5528 5514 5500 5486 5472 5459 5444 5428 5412 5395 5377 5358 5337 5317 5301 5291 5285 5282 5281 5281 5282 5283 5284 5286 5289 5292 5297 5303 5310 5317 5326 5336 5345 5354 5363 5373
5617 5603 5590 5579 5567 5555 5541 5528 5515 5501 5487 5474 5461 5447 5432 5416 5400 5383 5365 5346 5326 5309 5297 5290 5286 5284 5283 5284 5284 5285 5286 5287 5290 5294 5300 5307 5314 5322 5331 5340 5349 5358 5367
5616 5602 5589 5578 5566 5554 5541 5529 5516 5503 5489 5476 5464 5451 5436 5421 5405 5389 5372 5355 5337 5320 5306 5297 5291 5288 5286 5286 5286 5285 5286 5287 5288 5292 5297 5304 5311 5318 5327 5336 5344 5353 5361
5614 5601 5589 5578 5566 5554 5543 5530 5518 5505 5492 5479 5467 5454 5441 5426 5411 5395 5379 5363 5346 5331 5318 5307 5298 5293 5291 5289 5288 5286 5286 5287 5288 5290 5294 5301 5308 5315 5323 5332 5340 5348 5356
5613 5600 5588 5577 5566 5555 5544 5532 5520 5508 5496 5484 5472 5459 5446 5432 5418 5403 5388 5374 5359 5345 5333 5320 5310 5302 5296 5293 5291 5289 5287 5287 5287 5289 5292 5297 5304 5311 5319 5328 5336 5344 5352